Starlink 31586

operational
NORAD ID: 59205 Int'l Des: 2024-046 Owner: SPXS Country: US Constellation: starlink
LEOCIRCULAR

Über Starlink 31586

Beschreibung wird geladen...

Live-Position

3D-Globus wird geladen...

Nächste Überflüge

Höhenverlauf

Altitude vs Time

uPlot chart will show altitude changes over time

Zweizeiliger Elementsatz

1 59205U 24046E 25350.83026313 .00000981 00000-0 45245-4 0 9990
2 59205 53.1596 180.1950 0001209 94.5605 265.5533 15.30196750100363
Epoch: 16. Dez. 2025 • Age: 9 hours

Aktueller Status

Höhe 477.5 km
Geschwindigkeit 7.63 km/s
Subsatellitenpunkt -6.93°S, 7.68°E
Startdatum 11. März 2024
Alter 1.7 years
Typ internet

Technische Details

Klassifizierung Payload
Masse 730.00 kg
Trockenmasse 700.00 kg
Gesamtmasse 730.00 kg
Länge 0.30 m
Durchmesser 4.10 m
Spannweite 29.00 m
Form Box + pan
Hersteller SPXS
Bus-Typ Starlink V2M
Phasenstatus In Orbit
Besitzer/Staat SPXS/US

Große Konstellationen

Loading constellations...